Aérodrome :
LOGIN :

S'inscrire | Disclaimer

   EN    FR    IT 

 










Légende :    VFR   VFR Marginal   IFR   IFR Intensif   IFR Très Intensif
Visi : 
Plafond : 
>= 8 km
>= 3000ft
5 à 8 km
1000 à 3000 ft
1500m à 5 km
500 à 1000 ft
800 à 1500m
200 à 500 ft
< 800m
< 200 ft
Symboles :   Orages  Brouillard  Fortes neiges  Fortes précipitations  Vent > 20 kt
SIGMETs :   Divers  Orages  Givrage  Turbulence  Onde Orograph.  Cendres Volcan.







- Altitude de l'aérodrome : 512 ft
- Code IATA : URO
- Voir les cartes d'approche


LFOP - Rouen Vallée de Seine

DERNIER METAR :
  • 190730Z AUTO 08007KT CAVOK 21/12 Q1018 NOSIG

METARs EXPIRÉS :
  • 190700Z AUTO 09008KT CAVOK 20/12 Q1018 NOSIG
  • 190630Z AUTO 09004KT 050V120 CAVOK 19/12 Q1018 NOSIG
  • 190600Z AUTO 06006KT CAVOK 18/12 Q1018 NOSIG
  • 190530Z AUTO 07005KT CAVOK 17/12 Q1018 NOSIG
  • 190500Z AUTO 06007KT CAVOK 16/12 Q1018

TAF TAF LFOP
Valide du 19 à 06h jusqu'au 20 à 06h UTC


190500Z 1906/2006 08007KT CAVOK
PROB30
TEMPO 1921/2006 4000 TSRA BKN060CB
ATIS : +33 2 35 80 80 34
Météo : +33 2 32 86 52 80
Pas de NOTAMs connus pour ce terrain.



MET'MAP, la Météo Aéronautique d'un coup d'oeil ! - Copyright ORBIFLY Décembre 2007 - Disclaimer

ORBIFLY MET'MAP TEAM :

Programmation & Développement : Alexandra Zaïnal
Conception & Développement : Baudouin d'Aumeries
Co-Programmation & Développement : Marc-Olivier Méhu
Soutien technique & logistique : Manuel Goepfert

Contact : metmap@orbifly.com




SOURCES & CREDITS :

   NOAA